Location: Bacharowice
(49.9333°N, 19.5833°E)
Time: 08:22:06
(UTC+00:00)

Cosmos 2344 - Pass Details

Date: 04 October 2021
Orbit: 1235 x 3007 km, 63.3° (Epoch: 19 October)

Event Time Altitude Azimuth Distance (km) Brightness Sun altitude
Rises 17:37:42 0° 296° (WNW) 4,217 7.9 -14.4°
Reaches altitude 10° 17:40:37 10° 306° (NW) 3,323 6.8 -14.8°
Maximum altitude 17:47:48 35° 11° (N) 2,214 4.8 -16.0°
Enters shadow 17:55:17 14° 71° (ENE) 3,727 5.5 -17.1°
